Location: Newark
(46.2031°N, 3.4731°E)
Time: 10:03:49
(UTC+00:00)

Envisat - Visible Passes

Search period start: 16 September 2019 00:00
Search period end: 26 September 2019 00:00
Orbit: 764 x 766 km, 98.1° (Epoch: 16 September)

Date Brightness Start Highest point End Pass type
(mag) Time Alt. Az. Time Alt. Az. Time Alt. Az.
16 Sep 4.7 18:33:41 10° SSW 18:38:23 37° W 18:43:07 10° NNW visible
17 Sep 6.4 19:40:39 10° W 19:41:20 10° W 19:42:03 10° WNW visible
18 Sep 5.6 19:00:09 10° SW 19:04:06 23° W 19:08:05 10° NW visible
19 Sep 4.2 18:22:12 10° S 18:27:04 47° W 18:31:59 10° NNW visible
20 Sep 6.1 19:27:31 10° WSW 19:29:55 13° W 19:32:19 10° WNW visible
21 Sep 5.2 18:48:25 10° SSW 18:52:44 28° W 18:57:06 10° NW visible
22 Sep 3.8 18:10:46 10° S 18:15:46 59° W 18:20:49 10° NNW visible
23 Sep 5.9 19:15:19 10° SW 19:18:31 17° W 19:21:45 10° NW visible
24 Sep 4.8 18:36:48 10° SSW 18:41:24 34° W 18:46:02 10° NNW visible
25 Sep 3.4 17:59:25 10° S 18:04:29 73° WSW 18:09:36 10° NNW visible
